User: anonymous   Login
Location: Ithaca
(42.4410°N, 76.4970°W)
Time: 14:35:20
(UTC-04:00)
Language:

Cosmos 1271 Rocket - Orbit

View from above orbital plane
View from above orbital plane
View from above satellite
View from above satellite

Ground track
Ground track

The orbit data is extracted from the following two-line orbital elements,

1 12465U 81046B   17207.88840462 +.00000210 +00000-0 +99912-5 0  9992
2 12465 081.2448 338.8174 0034645 186.5997 173.4780 15.13872512960378
Epoch (UTC): 26 July 2017 21:19:18
Eccentricity: 0.0034645
inclination: 81.2448°
perigee height: 500 km
apogee height: 548 km
right ascension of ascending node: 338.8174°
argument of perigee: 186.5997°
revolutions per day: 15.13872512
mean anomaly at epoch: 173.4780°
orbit number at epoch: 96037

The dashed part of the orbit path shows where the satellite is in the earth's shadow,  

DLR